Location: Horní St?ítež
(49.5381°N, 14.7234°E)
Time: 07:48:55
(UTC+00:00)

Daily predictions for brighter satellites

Satellite Brightness Start Highest point End
(mag) Time Altitude Azimuth Time Altitude Azimuth Time Altitude Azimuth
Cosmos 1190 Rocket 4.1 19:47:23 10° NNW 19:52:45 88° ENE 19:58:04 10° SSE
Cosmos 1943 3.9 19:47:31 10° SW 19:53:06 60° WNW 19:58:43 10° NNE
SPOT 3 Rocket 3.6 19:51:11 10° SSE 19:56:22 81° ENE 20:01:36 10° NNW
Cosmos 407 Rocket 4.0 19:51:42 10° NNW 19:56:49 60° WSW 20:01:52 10° S
H-2A R/B 2.8 19:52:51 10° N 19:57:10 59° WNW 20:01:32 10° SSW
Cosmos 1975 Rocket 3.1 19:55:15 10° S 19:59:41 76° E 20:04:09 10° NNE
Terra 2.6 19:55:23 10° SE 19:59:49 40° ENE 20:04:16 10° N
USA 276 3.4 19:58:00 10° SSW 20:00:11 18° SE 20:02:22 10° E
Cosmos 1603 4.5 19:54:46 10° SW 20:00:24 60° WNW 20:06:07 10° NNE
CARTOSAT-1 3.7 19:57:35 10° S 20:01:54 80° WSW 20:06:15 10° NNW
Meteor 2-5 Rocket 3.7 19:56:43 10° S 20:02:12 70° E 20:07:44 10° NNE
FALCON 9 DEB 3.1 20:00:14 10° WSW 20:03:30 79° NNW 20:06:47 10° ENE
NOSS 2-1 (E) 4.2 19:59:28 10° NW 20:03:47 62° NE 20:09:51 10° SE
ERS-1 Rocket 3.2 20:04:22 10° SSE 20:09:19 61° ENE 20:14:18 10° N
Cosmos 1140 Rocket 4.5 20:07:01 10° NW 20:11:56 43° WSW 20:16:47 10° S
Cosmos 2056 Rocket 3.6 20:06:48 10° SSW 20:12:08 69° ESE 20:17:33 10° NNE
Cosmos 2084 3.5 20:10:57 10° SSW 20:14:36 44° SE 20:18:18 10° NE
Cosmos 1455 2.2 20:11:27 10° N 20:15:15 66° E 20:19:02 10° SSE
Cosmos 1544 Rocket 3.5 20:12:12 10° N 20:16:32 75° ENE 20:20:51 10° SSE
CZ-4B R/B 2.7 20:14:25 10° N 20:17:07 35° WNW 20:19:47 10° SW
Cosmos 2184 Rocket 4.4 20:13:09 10° N 20:19:08 50° ENE 20:24:55 11° SSE
X-37B 1.7 20:17:29 10° SSW 20:19:39 20° SSE 20:21:45 10° ESE
Cosmos 676 Rocket 4.1 20:14:37 10° NNW 20:19:59 89° WSW 20:25:12 10° SSE
Cosmos 1420 Rocket 4.0 20:15:59 10° S 20:21:10 66° ESE 20:26:25 10° NNE
Cosmos 1980 Rocket 4.0 20:19:31 10° N 20:23:57 22° NE 20:28:22 10° E
Resurs 01 Rocket 3.6 20:22:40 10° SSW 20:26:20 25° W 20:30:01 10° NW
Cosmos 1697 Rocket 3.8 20:22:19 10° NNW 20:27:31 36° NE 20:32:38 10° ESE
Cosmos 1703 4.1 20:28:04 13° SSE 20:31:03 32° E 20:34:31 10° NNE
USA 32 4.1 20:26:39 10° S 20:31:52 89° WSW 20:37:09 10° N
Cosmos 1954 Rocket 4.4 20:33:59 10° NNW 20:39:11 59° WSW 20:44:08 11° S
Cosmos 1656 3.7 20:36:24 10° NNW 20:41:53 77° ENE 20:46:33 15° SSE
USA 267 3.4 20:36:30 10° ENE 20:42:48 48° SE 20:49:05 10° SSW
CZ-2C R/B 3.7 20:38:20 10° NNE 20:42:58 71° ESE 20:47:29 10° S
Meteor 1-24 Rocket 4.0 20:38:45 10° SSW 20:44:00 64° WNW 20:49:25 10° N
NOSS 2-1 (C) 4.1 20:40:55 10° NW 20:45:19 68° SW 20:50:28 15° SSE
Cosmos 1850 Rocket 4.2 20:41:37 10° NNW 20:46:49 65° ENE 20:51:01 16° SE
Cosmos 724 4.2 20:45:40 10° SSW 20:51:24 66° ESE 20:57:09 10° NE
Helios 1A Rocket 3.8 20:49:35 10° S 20:53:29 45° W 20:57:26 10° NNW
NOSS 2-1 (D) 4.3 20:51:15 10° NW 20:55:42 59° SW 21:00:34 16° SSE
Cosmos 1833 Rocket 3.4 20:53:24 14° SSE 20:57:32 35° ESE 21:02:35 10° NE
ARIANE 5 R/B 2.7 20:55:09 15° S 20:58:48 80° WSW 21:03:16 10° NNW
SL-8 R/B 3.6 20:54:29 10° W 20:59:18 76° S 21:04:08 10° ESE
SPOT 5 3.7 20:58:20 10° SSW 21:02:31 39° W 21:06:37 10° NNW
ATLAS 5 CENTAUR R/B 4.4 20:53:14 10° NW 21:03:04 28° W 21:07:01 10° SSW
Lacrosse 5 rocket 2.7 21:04:00 10° WNW 21:07:11 24° SW 21:09:19 16° S
Cosmos 2074 Rocket 4.2 21:02:40 10° NNW 21:08:57 74° W 21:14:25 14° S
GP-B 4.0 21:05:53 10° NNE 21:09:56 34° E 21:12:28 19° SE
SAR-Lupe-4 3.9 21:06:58 10° NNE 21:10:26 46° E 21:12:22 22° SSE
Meteor 2-1 Rocket 4.3 21:05:11 10° N 21:10:41 69° ENE 21:14:42 19° SSE
RESURS DK-1 2.3 21:08:48 10° NNW 21:12:58 82° ENE 21:15:36 22° SE
Cosmos 1408 4.2 21:12:01 16° ESE 21:13:07 19° E 21:15:38 10° NE
Cosmos 1452 Rocket 3.5 21:08:32 10° SSW 21:13:47 76° ESE 21:19:03 10° NNE
Cosmos 1271 Rocket 4.5 21:11:35 10° NNW 21:15:00 28° W 21:18:23 10° SSW
Tiangong 3.1 21:13:42 10° SW 21:15:07 15° SSW 21:15:07 15° SSW
ATLAS 2AS CENTAUR R/B 3.4 21:09:55 10° NW 21:16:34 44° WSW 21:21:29 16° S
USA 234 3.3 21:11:53 11° ESE 21:18:16 89° SW 21:24:52 10° WNW
Cosmos 2082 Rocket 3.5 21:15:47 17° SE 21:18:17 23° ESE 21:22:39 10° NE
SAR-Lupe-1 4.0 21:21:45 10° NNE 21:25:20 79° ESE 21:27:33 22° S
Cosmos 1110 Rocket 4.0 21:23:04 16° S 21:27:16 64° ESE 21:32:31 10° NNE
Nadezhda 1 Rocket 3.9 21:22:54 15° S 21:28:10 87° E 21:34:16 10° N
Lacrosse 5 2.8 21:25:07 10° WNW 21:29:43 34° SW 21:32:24 21° S
Cosmos 2154 Rocket 4.2 21:26:10 10° NNW 21:32:22 70° W 21:37:10 17° S
USA 276 1.8 21:32:31 10° WSW 21:35:30 68° SSE 21:38:30 10° E
Cosmos 2228 3.7 21:33:16 10° NNW 21:37:20 47° W 21:40:08 19° SSW
Terra 3.3 21:33:41 11° SSW 21:37:41 29° W 21:41:50 10° NW
Cosmos 1606 Rocket 3.6 21:33:22 10° NNW 21:37:41 73° W 21:40:15 24° S
Cosmos 2344 4.3 21:29:55 10° NW 21:38:40 89° NE 21:49:16 15° SE
FALCON 9 DEB 4.3 21:36:53 10° WNW 21:40:02 43° N 21:43:11 10° ENE
SJ 16-02 3.9 21:41:35 10° NNE 21:43:34 13° NE 21:45:34 10° ENE
Cosmos 1825 3.7 21:44:54 20° ESE 21:46:02 23° E 21:49:03 10° NE
Cosmos 1900 4.4 21:42:53 10° NW 21:48:05 85° SW 21:51:13 24° SSE
Cosmos 1869 4.5 21:44:49 10° N 21:48:19 31° ENE 21:50:08 21° ESE
COSMOS 2406 3.4 21:49:46 21° S 21:53:29 56° ESE 21:59:07 10° NE
Cosmos 2084 Rocket 3.5 21:49:48 10° NW 21:53:40 65° NE 21:56:07 22° ESE
X-37B 2.4 21:52:08 10° WSW 21:53:00 17° SW 21:53:00 17° SW
ERS-2 4.0 21:53:01 10° NE 21:55:21 16° E 21:56:00 16° ESE
Cosmos 2369 3.7 21:51:58 10° NNW 21:57:45 85° ENE 22:01:22 24° SSE
SL-16 R/B 3.8 21:54:57 10° NNW 21:59:54 30° NE 22:04:50 10° ESE
Cosmos 1726 Rocket 4.0 21:58:38 10° NNW 22:02:50 52° W 22:05:09 24° SSW
Cosmos 968 Rocket 3.4 21:59:26 10° NNW 22:04:39 89° ENE 22:07:37 27° SSE
SL-8 Rocket 4.0 21:58:49 10° N 22:05:08 86° E 22:09:01 25° S
Spot 4 3.8 22:06:05 28° S 22:08:38 82° WSW 22:13:27 10° NNW
Cosmos 1980 Rocket 2.2 22:03:01 10° NNW 22:08:47 90° ENE 22:12:13 25° SSE
Meteor 1-11 4.2 22:05:47 23° S 22:09:25 85° E 22:15:02 10° NNE
Cosmos 1697 Rocket 3.2 22:06:15 10° NW 22:11:38 48° WSW 22:14:40 24° S
ALOS 2 2.6 22:11:52 29° SSE 22:14:01 74° ENE 22:18:26 10° N
Cosmos 2218 Rocket 4.0 22:08:36 10° N 22:15:03 86° E 22:19:02 25° S
Cosmos 1892 2.5 22:13:38 35° S 22:15:08 88° ESE 22:18:56 10° N
Cosmos 967 Rocket 4.5 22:13:04 11° SW 22:19:19 87° ESE 22:25:50 10° NE
Cosmos 192 4.3 22:16:35 24° SSW 22:19:36 88° ESE 22:24:33 10° NNE
Cosmos 2366 rocket 4.0 22:13:57 10° N 22:20:19 88° WSW 22:24:11 26° S
Cosmos 2341 Rocket 4.3 22:15:22 10° NNW 22:21:39 64° W 22:25:37 23° SSW
In-Cosmos 22 Rocket 4.2 22:21:57 26° S 22:25:11 78° E 22:30:42 10° NNE
Cosmos 1633 3.6 22:24:46 27° ESE 22:25:33 30° E 22:28:38 10° NNE
USA 267 3.5 22:19:32 10° ENE 22:26:03 72° NNW 22:32:34 10° WSW
ASTEX 1 4.4 22:21:31 10° N 22:26:13 42° WNW 22:29:50 16° SW
ADEOS Rocket 3.5 22:23:16 24° SSE 22:28:00 89° ENE 22:35:42 10° NNW
Cosmos 1602 Rocket 4.1 22:28:44 30° SE 22:30:23 45° E 22:34:31 10° NNE
Cosmos 1486 Rocket 4.1 22:26:51 10° NNW 22:32:05 72° ENE 22:35:07 25° SE
Cosmos 2058 Rocket 3.8 22:29:55 10° NNW 22:34:05 43° W 22:36:09 25° SSW
Cosmos 2322 Rocket 3.4 22:34:38 10° NNW 22:39:56 39° NE 22:45:15 10° ESE
Cosmos 1833 Rocket 3.6 22:35:58 10° SW 22:41:20 46° NW 22:46:46 10° NNE
SL-8 R/B 4.2 22:37:02 10° W 22:41:33 40° SSW 22:42:54 32° S
Cosmos 2278 3.7 22:37:06 10° NNW 22:42:51 83° WSW 22:46:07 27° SSE
H-2A R/B 3.5 22:39:00 10° N 22:43:12 76° WNW 22:45:11 30° SSW
Cosmos 1408 3.9 22:45:59 20° WSW 22:47:36 30° WNW 22:50:42 10° N
Cosmos 1992 Rocket 4.0 22:46:40 30° S 22:49:14 67° ESE 22:54:27 10° NNE
Cosmos 807 4.3 22:46:28 10° NNW 22:49:57 71° W 22:50:35 51° SSW
ATLAS 5 CENTAUR R/B 2.1 22:50:40 30° SE 22:51:04 31° ESE 22:54:42 10° ENE
Cosmos-2242 3.0 22:50:20 10° N 22:54:35 74° ENE 22:56:21 34° SSE
Aureole 1 Rocket 4.4 22:47:51 10° NNW 22:54:37 89° WSW 23:00:10 22° SSE
Cosmos 1354 Rocket 4.5 22:50:00 10° NNW 22:55:16 58° ENE 22:58:50 20° SE
Cosmos 1626 Rocket 3.7 22:54:02 31° SSW 22:56:00 68° WNW 23:00:20 10° N
Cosmos 2181 Rocket 4.3 22:52:47 21° SSW 22:56:55 59° WNW 23:03:03 10° N
Cosmos 1867 3.7 22:54:37 10° NW 22:59:59 57° WSW 23:02:31 30° S
USA 234 4.0 22:59:13 25° S 23:01:48 33° SW 23:07:38 10° WNW
Cosmos 2082 Rocket 2.5 22:57:35 18° SW 23:01:51 68° WNW 23:07:34 10° NNE
Cosmos 1825 Rocket 4.0 23:06:27 31° SSE 23:08:09 48° E 23:12:19 10° NNE
Okean 1-7 Rocket 4.3 23:06:13 24° SW 23:08:33 45° WNW 23:12:53 10° N
Cosmos 1503 Rocket 4.0 23:03:29 10° NNW 23:08:51 87° ENE 23:11:49 27° SSE
USA 276 2.0 23:08:11 10° W 23:11:11 80° N 23:14:12 10° E
Cosmos 2058 3.3 23:14:21 32° SSE 23:15:57 53° E 23:20:03 10° NNE
Geosat FO 4.4 23:14:47 39° SSE 23:15:59 87° ENE 23:19:36 10° NNW
FALCON 9 DEB 3.2 23:13:18 10° WNW 23:16:35 71° NNE 23:19:51 10° ESE
Cosmos 1821 Rocket 4.1 23:11:13 10° NNW 23:17:28 69° W 23:20:59 27° S
Meteor 2-20 4.4 23:15:05 27° SSW 23:18:40 81° W 23:24:48 10° N
Cosmos 2360 Rocket 3.0 23:14:44 10° NNW 23:20:16 49° NE 23:25:45 10° SE
Cosmos 1825 3.6 23:19:32 20° WSW 23:21:15 30° WNW 23:24:35 10° N
SJ 16-02 1.4 23:18:30 10° NNW 23:22:58 75° ENE 23:25:18 27° SSE
BREEZE-M DEB (TANK) 4.3 23:20:33 10° W 23:24:33 74° SSW 23:42:49 10° ESE
Cosmos 1777 Rocket 4.3 23:20:12 10° NNW 23:25:30 68° ENE 23:29:13 20° SE
Geosat 4.2 23:22:14 18° SE 23:26:00 72° ENE 23:31:03 10° NNW
ERS-2 2.9 23:25:29 10° N 23:28:54 43° WNW 23:30:22 27° WSW
SL-19 R/B 4.2 23:30:01 35° SSE 23:31:27 75° ENE 23:35:28 10° NNW
Cosmos 1606 2.9 23:30:18 10° NNW 23:34:05 57° W 23:35:18 37° SSW
Nadezhda 3 Rocket 4.0 23:30:29 26° SSW 23:34:09 74° WNW 23:40:20 10° N
PSLV R/B 4.0 23:33:26 10° N 23:38:11 65° WNW 23:40:41 27° SW
Meteor 2-2 Rocket 4.4 23:36:34 10° NNW 23:42:34 81° W 23:46:14 25° S
Cosmos 1758 Rocket 4.2 23:41:08 25° SW 23:43:12 44° WNW 23:47:25 10° N
SL-16 R/B 2.3 23:38:49 10° NW 23:44:26 62° WSW 23:47:37 26° S
Cosmos 2221 2.6 23:46:51 10° N 23:51:12 73° E 23:53:34 26° SSE
Cosmos 1980 Rocket 4.0 23:48:31 10° WNW 23:51:58 16° W 23:53:57 14° WSW
SL-27 R/B 4.5 23:55:50 14° SE 23:56:57 16° E 23:59:05 10° ENE
